Location: South Tamworth Observatory
(43.8246°N, 71.3026°W)
Time: 02:37:57
(UTC-04:00)

Amateur Radio Satellites - All Passes

Search period start: 05 May 2016 02:07
Search period end: 06 May 2016 02:07
Location: South Tamworth Observatory, 43.8246°N, 71.3026°W

Satellite Date Start Highest point End Downlink Frequencies (MHz)
Time Altitude Azimuth
BUGSAT 1 05 May 02:15:39 02:17:55 14° 298° (WNW) 02:20:11 437.445
BEESAT 2 05 May 02:16:02 02:19:35 30° 47° (NE) 02:23:08 435.950
DANDE 05 May 02:28:11 02:34:56 81° 79° (E) 02:43:08 436.750
KKS-1 05 May 02:29:10 02:32:28 20° 64° (ENE) 02:35:46 437.445
ITAMSAT 1 05 May 02:29:48 02:33:12 17° 91° (E) 02:36:34 435.822/435.867
BEESAT 05 May 02:38:29 02:43:03 47° 260° (W) 02:47:40 436.000
STARS 05 May 02:40:26 02:42:49 14° 61° (ENE) 02:45:14 437.465
Oscar 19 05 May 02:44:11 02:49:20 63° 288° (WNW) 02:54:27 437.125/150
MOZHAYETS 4 05 May 02:49:22 02:52:44 21° 65° (ENE) 02:56:07
Gurwin Techsat 1B 05 May 02:57:27 03:02:47 74° 103° (ESE) 03:08:05 435.225
CUSAT 1 05 May 03:07:29 03:14:00 34° 271° (W) 03:20:59 437.405
AO-7 05 May 03:07:49 03:13:25 19° 90° (E) 03:18:58 29.400- 29.500
RS-15 05 May 03:17:19 03:27:31 30° 16° (NNE) 03:37:55 29.354- 29.394
JAS-2 05 May 03:18:28 03:25:16 35° 298° (WNW) 03:32:05 435.910
GONETS M04 05 May 03:30:50 03:33:50 12° 309° (NW) 03:36:51
ITUPSAT 1 05 May 03:37:48 03:40:13 14° 270° (W) 03:42:38 437.325
BEESAT 3 05 May 03:42:13 03:45:20 23° 247° (WSW) 03:48:26 437.485
Cosmos 2499 05 May 03:51:48 03:52:54 10° 306° (NW) 03:54:01 435.465 / 435.565
BEESAT 2 05 May 03:53:56 03:57:24 28° 245° (WSW) 04:00:50 435.950
YUBILEINY 05 May 03:54:27 03:59:38 17° 57° (ENE) 04:04:48 435.215
KKS-1 05 May 04:04:28 04:08:44 44° 261° (W) 04:13:03 437.445
AIST 2 05 May 04:07:18 04:11:03 32° 47° (NE) 04:14:48 435.215
ITAMSAT 1 05 May 04:07:58 04:13:05 62° 288° (WNW) 04:18:12 435.822/435.867
DANDE 05 May 04:12:19 04:17:22 22° 273° (W) 04:23:00 436.750
STARS 05 May 04:14:16 04:18:40 65° 258° (WSW) 04:23:07 437.465
MOZHAYETS 4 05 May 04:25:16 04:29:37 44° 262° (W) 04:34:00
Gurwin Techsat 1B 05 May 04:38:48 04:42:07 17° 301° (WNW) 04:45:27 435.225
CUBESAT XI-V 05 May 04:40:14 04:44:18 32° 68° (ENE) 04:48:24 437.345
Cosmos 2491 05 May 04:44:40 04:48:27 14° 72° (ENE) 04:52:14 435.465 / 435.565
AO-7 05 May 04:58:51 05:07:14 89° 108° (ESE) 05:15:37 29.400- 29.500
HORYU 2 05 May 05:21:12 05:25:34 56° 101° (E) 05:29:54 437.375
STRAND 1 05 May 05:23:43 05:25:00 11° 55° (NE) 05:26:17 437.568
SO-50 05 May 05:27:26 05:29:56 14° 108° (ESE) 05:32:26 436.795
RS-15 05 May 05:31:03 05:43:12 62° 47° (NE) 05:55:23 29.354- 29.394
ISS 05 May 05:36:36 05:38:11 13° 132° (SE) 05:39:47 145.825
AIST 2 05 May 05:45:54 05:49:29 28° 245° (WSW) 05:53:01 435.215
Cosmos 2504 05 May 05:49:01 05:54:34 21° 64° (ENE) 06:00:20 435.465 / 435.565
YUBILEINY 05 May 05:49:24 05:58:08 75° 80° (E) 06:06:51 435.215
CUTE-I 05 May 05:55:43 05:58:57 16° 90° (E) 06:02:11 437.470
CUBESAT XI-V 05 May 06:17:45 06:21:41 27° 265° (W) 06:25:39 437.345
NOAA 15 05 May 06:28:28 06:33:36 47° 99° (E) 06:38:43 137.62
NOAA 18 05 May 06:28:37 06:33:46 40° 98° (E) 06:38:52 137.9125
Cosmos 2491 05 May 06:34:48 06:43:32 70° 94° (E) 06:52:19 435.465 / 435.565
BRITE-PL 05 May 06:36:12 06:41:38 43° 96° (E) 06:46:53 437.365/2234.400
Cubesat XI-IV 05 May 06:39:39 06:44:40 40° 98° (E) 06:49:38 437.490
AO-7 05 May 06:52:48 06:59:01 24° 310° (NW) 07:05:14 29.400- 29.500
STRAND 1 05 May 06:58:12 07:03:17 75° 73° (ENE) 07:08:23 437.568
HORYU 2 05 May 06:58:59 07:01:41 16° 298° (WNW) 07:04:23 437.375
SO-50 05 May 07:04:51 07:09:47 81° 305° (NW) 07:14:43 436.795
ISS 05 May 07:10:58 07:14:13 85° 327° (NNW) 07:17:30 145.825
LilacSat-2 05 May 07:12:09 07:15:58 89° 106° (ESE) 07:19:45 437.200
DOVE 4 05 May 07:18:42 07:22:53 25° 92° (E) 07:26:52 437.250
CUTE-I 05 May 07:34:12 07:39:30 69° 287° (WNW) 07:44:47 437.470
GOMX 1 05 May 07:34:54 07:40:22 72° 101° (ESE) 07:45:32 467.674
M-CUBED/EXP-1 PRIME 05 May 07:36:16 07:39:42 30° 101° (E) 07:42:54 437.505
Cosmos 2504 05 May 07:41:08 07:48:47 82° 264° (W) 07:57:01 435.465 / 435.565
RS-15 05 May 07:44:03 07:55:27 47° 250° (WSW) 08:06:50 29.354- 29.394
CINEMA 3 05 May 07:44:31 07:46:38 13° 88° (E) 07:48:42 145.822/145.860
YUBILEINY 05 May 07:47:30 07:54:00 24° 280° (W) 08:00:32 435.215
AUBIESAT-1 05 May 07:52:29 07:56:05 38° 103° (ESE) 07:59:24 437.475
SEEDS 05 May 07:53:56 07:54:41 10° 88° (E) 07:55:26 437.485
PRISM 05 May 08:07:39 08:11:44 80° 75° (ENE) 08:15:52 437.425
NOAA 15 05 May 08:08:49 08:13:06 25° 297° (WNW) 08:17:23 137.62
NOAA 18 05 May 08:09:35 08:14:15 30° 296° (WNW) 08:18:55 137.9125
BRITE-PL 05 May 08:14:57 08:19:52 31° 294° (WNW) 08:24:42 437.365/2234.400
AAUSAT CUBESAT 2 05 May 08:19:53 08:21:29 12° 89° (E) 08:23:04 437.432
Cubesat XI-IV 05 May 08:20:02 08:24:34 29° 295° (WNW) 08:29:05 437.490
HO-68 05 May 08:28:14 08:34:59 43° 98° (E) 08:41:43 435.675
CANX-2 05 May 08:32:03 08:36:07 44° 98° (E) 08:40:09 2200.000
Cosmos 2491 05 May 08:33:50 08:41:10 28° 295° (WNW) 08:48:32 435.465 / 435.565
PHONESAT 2.4 05 May 08:39:45 08:41:34 14° 154° (SSE) 08:43:23 2401.200-2431.200
STRAND 1 05 May 08:40:27 08:43:01 14° 271° (W) 08:45:35 437.568
SO-50 05 May 08:47:48 08:51:02 17° 325° (NW) 08:54:16 436.795
ISS 05 May 08:48:16 08:51:01 24° 347° (NNW) 08:53:47 145.825
DOVE 4 05 May 08:55:57 09:00:43 40° 291° (WNW) 09:05:13 437.250
Oscar 11 05 May 09:01:59 09:04:28 15° 91° (E) 09:06:55 145.826/435.025
CUTE 1.7 + AOD 2 05 May 09:04:14 09:08:29 88° 111° (ESE) 09:12:42 437.475
M-CUBED/EXP-1 PRIME 05 May 09:11:06 09:14:06 21° 301° (WNW) 09:16:56 437.505
GOMX 1 05 May 09:14:15 09:17:47 18° 300° (WNW) 09:21:13 467.674
FUNcube-1 05 May 09:17:14 09:19:59 17° 92° (E) 09:22:43 145.935
CUTE-I 05 May 09:17:29 09:18:34 11° 306° (NW) 09:19:40 437.470
CINEMA 3 05 May 09:19:43 09:24:18 64° 287° (WNW) 09:28:39 145.822/145.860
UNISAT 6 05 May 09:23:20 09:27:09 26° 67° (ENE) 09:30:53 437.425
COMPASS 1 05 May 09:25:02 09:29:13 80° 102° (ESE) 09:33:24 437.405
SEEDS 05 May 09:26:41 09:30:52 71° 285° (WNW) 09:35:02 437.485
AUBIESAT-1 05 May 09:27:42 09:30:17 17° 302° (WNW) 09:32:44 437.475
UWE-3 05 May 09:35:33 09:39:36 42° 98° (E) 09:43:32 435.000/436.395/437.385
Cosmos 2504 05 May 09:36:55 09:41:02 15° 282° (WNW) 09:45:17 435.465 / 435.565
GONETS M04 05 May 09:39:09 09:44:47 18° 58° (ENE) 09:50:23
TIGRISAT 05 May 09:39:28 09:43:39 35° 69° (ENE) 09:47:46 435.000
CUBEBUG 2 05 May 09:48:40 09:53:00 87° 107° (ESE) 09:57:11 437.445
AAUSAT CUBESAT 2 05 May 09:53:16 09:57:22 61° 286° (WNW) 10:01:28 437.432
ZACube-1 05 May 10:00:00 10:04:07 53° 100° (E) 10:08:09 437.345
ANTELSAT 05 May 10:04:33 10:09:08 66° 74° (ENE) 10:13:39 437.575/2403.000
CANX-2 05 May 10:08:47 10:11:40 18° 295° (WNW) 10:14:32 2200.000
NANOSAT C BR1 05 May 10:10:10 10:12:39 15° 63° (ENE) 10:15:09 145.865
PHONESAT 2.4 05 May 10:14:59 10:17:55 37° 169° (S) 10:20:52 2401.200-2431.200
HO-68 05 May 10:16:05 10:22:39 41° 297° (WNW) 10:29:11 435.675
ISS 05 May 10:25:37 10:28:14 21° 8° (N) 10:30:50 145.825
Oscar 11 05 May 10:36:43 10:40:55 52° 287° (WNW) 10:45:06 145.826/435.025
HUMSAT D 05 May 10:39:38 10:43:26 36° 97° (E) 10:47:12 437.325/437.525
DELFI C3 05 May 10:44:22 10:48:22 83° 284° (WNW) 10:52:22 145.870
AO-85 05 May 10:49:18 10:51:52 14° 106° (ESE) 10:54:27 145.980
FUNcube-1 05 May 10:52:31 10:56:28 42° 289° (WNW) 11:00:22 145.935
DUCHIFAT 1 05 May 10:59:20 11:03:24 45° 71° (ENE) 11:07:29 145.980
UNISAT 6 05 May 10:59:29 11:03:43 35° 263° (W) 11:07:54 437.425
COMPASS 1 05 May 11:03:15 11:04:10 11° 299° (WNW) 11:05:04 437.405
QB50P2 05 May 11:03:29 11:07:42 58° 73° (ENE) 11:11:55 145.880/145.840
AIST 1 05 May 11:04:24 11:08:46 57° 79° (ENE) 11:13:06
POLYITAN 1 05 May 11:05:40 11:09:53 59° 73° (ENE) 11:14:08 437.675
POPSAT HIP 1 05 May 11:07:30 11:11:44 60° 73° (ENE) 11:15:58 437.405
QB50P1 05 May 11:10:25 11:14:40 66° 74° (ENE) 11:18:56 145.935-145.965
UWE-3 05 May 11:12:51 11:15:45 18° 296° (WNW) 11:18:37 435.000/436.395/437.385
TIGRISAT 05 May 11:16:33 11:20:22 25° 265° (W) 11:24:09 435.000
50 SAT 05 May 11:26:26 11:28:52 17° 93° (E) 11:31:17 437.505
CUBEBUG 2 05 May 11:28:33 11:28:53 10° 301° (WNW) 11:29:14 437.445
CUBEBUG 1 05 May 11:29:23 11:32:29 18° 92° (E) 11:35:34 437.445
BUGSAT 1 05 May 11:29:30 11:33:34 47° 72° (ENE) 11:37:41 437.445
ESTCUBE 1 05 May 11:29:47 11:33:36 26° 95° (E) 11:37:25 437.505/2401.250
GONETS M04 05 May 11:34:23 11:43:11 80° 80° (E) 11:51:54
ZACube-1 05 May 11:37:35 11:39:58 15° 297° (WNW) 11:42:20 437.345
Cosmos 2499 05 May 11:38:49 11:46:23 51° 76° (ENE) 11:54:28 435.465 / 435.565
NANOSAT C BR1 05 May 11:43:45 11:47:56 56° 259° (W) 11:52:10 145.865
ANTELSAT 05 May 11:43:58 11:46:15 14° 270° (W) 11:48:31 437.575/2403.000
JAS-2 05 May 11:47:17 11:52:34 29° 60° (ENE) 11:58:24 435.910
DX 1 05 May 11:50:52 11:54:36 26° 96° (E) 11:58:17 434.975-435.025
PHONESAT 2.4 05 May 11:51:30 11:54:31 42° 186° (S) 11:57:31 2401.200-2431.200
UKube-1 05 May 11:52:19 11:55:45 22° 94° (E) 11:59:09 .
ISS 05 May 12:01:59 12:05:11 54° 27° (NNE) 12:08:25 145.825
VELOX 1 05 May 12:03:23 12:07:38 41° 98° (E) 12:11:50 145.980
HUMSAT D 05 May 12:15:52 12:18:51 20° 294° (WNW) 12:21:49 437.325/437.525
SPROUT 05 May 12:16:56 12:20:19 22° 94° (E) 12:23:40 437.525
Oscar 19 05 May 12:23:57 12:28:22 29° 65° (ENE) 12:32:49 437.125/150
AO-85 05 May 12:26:10 12:31:39 85° 123° (ESE) 12:37:04 145.980
AISAT 05 May 12:35:46 12:40:16 86° 287° (WNW) 12:44:44 437.250
DUCHIFAT 1 05 May 12:36:31 12:39:20 17° 268° (W) 12:42:10 145.980
QB50P2 05 May 12:41:45 12:43:52 13° 270° (W) 12:46:00 145.880/145.840
TISAT 1 05 May 12:41:51 12:43:28 12° 90° (E) 12:45:03 437.305
Gurwin Techsat 1B 05 May 12:42:07 12:45:49 19° 61° (ENE) 12:49:31 435.225
AIST 1 05 May 12:43:41 12:45:50 13° 276° (W) 12:48:00
POLYITAN 1 05 May 12:44:00 12:46:04 13° 270° (W) 12:48:09 437.675
POPSAT HIP 1 05 May 12:45:54 12:47:53 13° 270° (W) 12:49:54 437.405
QB50P1 05 May 12:49:18 12:50:53 12° 271° (W) 12:52:29 145.935-145.965
50 SAT 05 May 12:59:27 13:02:46 33° 289° (WNW) 13:06:05 437.505
CUBEBUG 1 05 May 13:04:45 13:09:00 45° 289° (WNW) 13:13:12 437.445
ESTCUBE 1 05 May 13:06:23 13:10:25 33° 292° (WNW) 13:14:28 437.505/2401.250
BUGSAT 1 05 May 13:06:31 13:09:12 16° 268° (W) 13:11:54 437.445
DX 1 05 May 13:26:55 13:30:47 31° 292° (WNW) 13:34:37 434.975-435.025
UKube-1 05 May 13:27:54 13:31:52 35° 291° (WNW) 13:35:49 .
PHONESAT 2.4 05 May 13:28:36 13:30:59 20° 202° (SSW) 13:33:20 2401.200-2431.200
JAS-2 05 May 13:31:11 13:37:08 55° 262° (W) 13:43:58 435.910
Cosmos 2499 05 May 13:32:22 13:39:14 35° 274° (W) 13:46:33 435.465 / 435.565
GONETS M04 05 May 13:32:43 13:38:57 22° 282° (WNW) 13:45:08
ISS 05 May 13:38:52 13:41:26 21° 224° (SW) 13:44:01 145.825
VELOX 1 05 May 13:40:27 13:43:50 21° 295° (WNW) 13:47:12 145.980
O/OREOS (USA 219) 05 May 13:43:05 13:46:54 26° 103° (ESE) 13:50:44 437.305
ITAMSAT 1 05 May 13:48:42 13:53:12 31° 66° (ENE) 13:57:43 435.822/435.867
SPROUT 05 May 13:52:27 13:56:21 34° 291° (WNW) 14:00:13 437.525
SO-50 05 May 13:55:29 13:59:13 22° 39° (NE) 14:02:53 436.795
ITUPSAT 1 05 May 13:57:35 14:00:27 16° 91° (E) 14:03:17 437.325
Oscar 19 05 May 14:02:45 14:07:33 38° 263° (W) 14:12:24 437.125/150
SWISSCUBE 05 May 14:04:51 14:08:27 21° 93° (E) 14:12:00 437.505
AO-7 05 May 14:08:04 14:15:10 33° 56° (NE) 14:22:17 29.400- 29.500
AO-85 05 May 14:08:40 14:12:49 22° 322° (NW) 14:16:53 145.980
AISAT 05 May 14:15:18 14:16:00 10° 302° (WNW) 14:16:43 437.250
TISAT 1 05 May 14:15:21 14:19:33 63° 287° (WNW) 14:23:41 437.305
PCSat 05 May 14:16:18 14:20:32 24° 108° (ESE) 14:24:48 145.827
Gurwin Techsat 1B 05 May 14:20:00 14:25:16 63° 259° (W) 14:30:34 435.225
CUSAT 1 05 May 14:31:33 14:35:01 35° 89° (E) 14:39:26 437.405
BEESAT 05 May 14:37:05 14:41:32 38° 98° (E) 14:45:59 436.000
O/OREOS (USA 219) 05 May 15:21:58 15:26:10 34° 301° (WNW) 15:30:22 437.305
ITAMSAT 1 05 May 15:27:53 15:32:35 35° 263° (W) 15:37:20 435.822/435.867
ITUPSAT 1 05 May 15:33:58 15:38:41 60° 288° (WNW) 15:43:23 437.325
SO-50 05 May 15:35:27 15:40:09 63° 239° (WSW) 15:44:39 436.795
DANDE 05 May 15:41:22 15:44:26 80° 97° (E) 15:48:25 436.750
SWISSCUBE 05 May 15:41:54 15:46:27 45° 290° (WNW) 15:50:59 437.505
KKS-1 05 May 15:54:05 15:58:04 31° 96° (E) 16:02:00 437.445
PCSat 05 May 15:58:15 16:03:33 54° 306° (NW) 16:08:55 145.827
AO-7 05 May 15:59:17 16:07:28 64° 256° (WSW) 16:15:43 29.400- 29.500
STARS 05 May 16:03:05 16:06:22 20° 93° (E) 16:09:37 437.465
NOAA 15 05 May 16:13:44 16:16:07 13° 56° (NE) 16:18:29 137.62
CUSAT 1 05 May 16:14:25 16:17:27 20° 298° (WNW) 16:21:07 437.405
BEESAT 05 May 16:15:16 16:19:08 25° 295° (WNW) 16:23:00 436.000
MOZHAYETS 4 05 May 16:18:42 16:22:58 38° 97° (E) 16:27:14
NOAA 18 05 May 16:19:03 16:21:51 14° 56° (NE) 16:24:40 137.9125
HORYU 2 05 May 16:20:13 16:24:38 62° 72° (ENE) 16:29:02 437.375
Cubesat XI-IV 05 May 16:27:19 16:29:04 12° 55° (NE) 16:30:48 437.490
Cosmos 2491 05 May 16:43:48 16:51:51 37° 69° (ENE) 16:59:48 435.465 / 435.565
YUBILEINY 05 May 16:59:52 17:04:47 17° 75° (ENE) 17:09:43 435.215
GOMX 1 05 May 17:09:06 17:11:27 13° 57° (ENE) 17:13:51 467.674
CUTE-I 05 May 17:18:21 17:22:59 31° 65° (ENE) 17:27:36 437.470
KKS-1 05 May 17:30:45 17:34:32 27° 293° (WNW) 17:38:17 437.445
BEESAT 3 05 May 17:33:22 17:37:03 39° 118° (ESE) 17:40:45 437.485
STARS 05 May 17:38:46 17:42:54 40° 290° (WNW) 17:46:59 437.465
PCSat 05 May 17:45:48 17:48:14 13° 328° (NNW) 17:50:40 145.827
BEESAT 2 05 May 17:46:48 17:50:22 32° 116° (ESE) 17:53:57 435.950
BRITE-PL 05 May 17:47:57 17:52:44 50° 71° (ENE) 17:57:55 437.365/2234.400
NOAA 15 05 May 17:49:48 17:55:04 85° 76° (ENE) 18:00:24 137.62
LilacSat-2 05 May 17:55:06 17:58:52 51° 73° (ENE) 18:02:39 437.200
NOAA 18 05 May 17:56:12 18:01:43 87° 74° (ENE) 18:07:15 137.9125
MOZHAYETS 4 05 May 17:56:18 17:59:56 24° 294° (WNW) 18:03:33
HORYU 2 05 May 17:59:20 18:01:35 14° 269° (W) 18:03:50 437.375
AO-7 05 May 17:59:37 18:01:51 11° 275° (W) 18:04:05 29.400- 29.500
Cubesat XI-IV 05 May 18:02:55 18:08:13 75° 73° (ENE) 18:13:33 437.490
CUBESAT XI-V 05 May 18:11:54 18:16:35 66° 101° (E) 18:21:17 437.345
M-CUBED/EXP-1 PRIME 05 May 18:22:37 18:27:15 57° 68° (ENE) 18:31:45 437.505
DOVE 4 05 May 18:24:37 18:29:09 31° 67° (ENE) 18:33:46 437.250
Cosmos 2504 05 May 18:33:22 18:36:26 13° 76° (ENE) 18:39:29 435.465 / 435.565
AUBIESAT-1 05 May 18:38:33 18:43:10 69° 68° (ENE) 18:47:39 437.475
Cosmos 2491 05 May 18:40:32 18:48:58 52° 271° (W) 18:57:19 435.465 / 435.565
GOMX 1 05 May 18:43:28 18:48:35 83° 79° (E) 18:54:03 467.674
CINEMA 3 05 May 18:46:38 18:49:56 18° 62° (ENE) 18:53:11 145.822/145.860
YUBILEINY 05 May 18:51:25 19:00:09 82° 95° (E) 19:08:53 435.215
CUTE-I 05 May 18:58:02 19:02:55 37° 263° (W) 19:07:50 437.470
HO-68 05 May 18:58:23 19:04:49 38° 62° (ENE) 19:11:15 435.675
STRAND 1 05 May 19:08:00 19:12:00 23° 93° (E) 19:15:58 437.568
BEESAT 3 05 May 19:11:42 19:14:53 23° 316° (NW) 19:18:06 437.485
AAUSAT CUBESAT 2 05 May 19:12:59 19:13:39 10° 60° (ENE) 19:14:20 437.432
CUBEBUG 2 05 May 19:15:02 19:16:03 11° 59° (ENE) 19:17:04 437.445
AO-85 05 May 19:17:44 19:21:16 19° 36° (NE) 19:24:35 145.980
BEESAT 2 05 May 19:24:49 19:28:14 27° 314° (NW) 19:31:42 435.950
CANX-2 05 May 19:26:03 19:29:56 37° 71° (ENE) 19:33:49 2200.000
BRITE-PL 05 May 19:27:48 19:31:34 21° 270° (W) 19:35:33 437.365/2234.400
LilacSat-2 05 May 19:31:47 19:33:29 12° 270° (W) 19:35:10 437.200
NOAA 15 05 May 19:33:17 19:35:31 13° 272° (W) 19:37:46 137.62
NOAA 18 05 May 19:40:37 19:43:04 13° 271° (W) 19:45:32 137.9125
AIST 2 05 May 19:44:01 19:47:53 40° 118° (ESE) 19:51:47 435.215
Cubesat XI-IV 05 May 19:45:56 19:48:51 15° 271° (W) 19:51:48 437.490
CUBESAT XI-V 05 May 19:50:42 19:53:27 16° 298° (WNW) 19:56:11 437.345
CUTE 1.7 + AOD 2 05 May 19:57:52 20:02:03 73° 75° (ENE) 20:06:16 437.475
RS-15 05 May 19:58:27 20:07:30 29° 102° (ESE) 20:16:54 29.354- 29.394
Oscar 11 05 May 19:58:31 20:00:56 15° 62° (ENE) 20:03:20 145.826/435.025
M-CUBED/EXP-1 PRIME 05 May 19:58:55 20:02:02 17° 263° (W) 20:05:08 437.505
DOVE 4 05 May 20:01:56 20:06:42 37° 264° (W) 20:11:37 437.250
FUNcube-1 05 May 20:14:03 20:17:06 18° 65° (ENE) 20:20:08 145.935
AUBIESAT-1 05 May 20:15:32 20:17:59 14° 264° (W) 20:20:23 437.475
COMPASS 1 05 May 20:16:49 20:20:54 62° 74° (ENE) 20:24:59 437.405
SEEDS 05 May 20:19:19 20:23:29 88° 249° (WSW) 20:27:40 437.485
Cosmos 2504 05 May 20:21:18 20:28:32 82° 97° (E) 20:35:44 435.465 / 435.565
CINEMA 3 05 May 20:21:34 20:26:33 64° 259° (W) 20:31:31 145.822/145.860
GOMX 1 05 May 20:24:59 20:27:23 13° 274° (W) 20:29:52 467.674
UWE-3 05 May 20:33:16 20:37:37 43° 71° (ENE) 20:41:54 435.000/436.395/437.385
AAUSAT CUBESAT 2 05 May 20:44:25 20:48:31 80° 257° (WSW) 20:52:39 437.432
HO-68 05 May 20:45:34 20:52:22 47° 261° (W) 20:59:14 435.675
STRAND 1 05 May 20:46:30 20:51:23 47° 290° (WNW) 20:56:16 437.568
CUBEBUG 2 05 May 20:47:13 20:51:57 84° 75° (ENE) 20:56:35 437.445
YUBILEINY 05 May 20:51:24 20:58:01 23° 298° (WNW) 21:04:41 435.215
ZACube-1 05 May 20:56:34 21:00:55 50° 73° (ENE) 21:05:12 437.345
AO-85 05 May 20:57:36 21:02:26 79° 238° (WSW) 21:06:47 145.980
CANX-2 05 May 21:02:47 21:05:55 20° 267° (W) 21:09:03 2200.000
PRISM 05 May 21:23:01 21:27:12 76° 285° (WNW) 21:31:22 437.425
AIST 2 05 May 21:23:05 21:26:30 25° 316° (NW) 21:29:58 435.215
DELFI C3 05 May 21:31:23 21:35:16 66° 76° (ENE) 21:39:13 145.870
HUMSAT D 05 May 21:32:11 21:35:53 31° 69° (ENE) 21:39:33 437.325/437.525
Oscar 11 05 May 21:32:21 21:36:36 58° 259° (W) 21:40:52 145.826/435.025
CUTE 1.7 + AOD 2 05 May 21:37:57 21:38:24 10° 272° (W) 21:38:50 437.475
FUNcube-1 05 May 21:48:40 21:53:01 48° 261° (W) 21:57:18 145.935
COMPASS 1 05 May 21:55:24 21:56:52 12° 271° (W) 21:58:21 437.405
ANTELSAT 05 May 21:57:23 21:58:43 11° 89° (E) 22:00:04 437.575/2403.000
AISAT 05 May 22:01:10 22:02:45 12° 59° (ENE) 22:04:19 437.250
RS-15 05 May 22:07:11 22:18:33 82° 306° (NW) 22:30:39 29.354- 29.394
50 SAT 05 May 22:08:18 22:09:05 11° 62° (ENE) 22:09:52 437.505
UWE-3 05 May 22:10:49 22:14:14 20° 267° (W) 22:17:37 435.000/436.395/437.385
Cosmos 2504 05 May 22:18:01 22:22:51 19° 297° (WNW) 22:27:42 435.465 / 435.565
CUBEBUG 1 05 May 22:26:51 22:29:57 19° 64° (ENE) 22:33:04 437.445
CUBEBUG 2 05 May 22:28:00 22:29:06 11° 272° (W) 22:30:12 437.445
ESTCUBE 1 05 May 22:30:38 22:34:28 29° 67° (ENE) 22:38:19 437.505/2401.250
ZACube-1 05 May 22:34:35 22:37:28 17° 269° (W) 22:40:19 437.345
GONETS M04 05 May 22:44:10 22:49:42 19° 76° (ENE) 22:55:14
DX 1 05 May 22:47:38 22:51:22 28° 67° (ENE) 22:55:06 434.975-435.025
UKube-1 05 May 22:48:13 22:51:39 23° 66° (ENE) 22:55:07 .
UNISAT 6 05 May 22:49:36 22:53:43 42° 98° (E) 22:57:45 437.425
PCSat 05 May 23:01:43 23:06:26 29° 46° (NE) 23:11:07 145.827
VELOX 1 05 May 23:01:48 23:05:59 43° 70° (ENE) 23:10:13 145.980
TIGRISAT 05 May 23:05:51 23:10:08 60° 101° (E) 23:14:19 435.000
HUMSAT D 05 May 23:08:07 23:11:31 24° 265° (W) 23:14:55 437.325/437.525
SPROUT 05 May 23:12:00 23:15:17 21° 65° (ENE) 23:18:34 437.525
NANOSAT C BR1 05 May 23:27:31 23:30:43 20° 93° (E) 23:33:52 145.865
ANTELSAT 05 May 23:31:39 23:35:56 67° 286° (WNW) 23:40:10 437.575/2403.000
AISAT 05 May 23:34:05 23:38:33 83° 257° (WSW) 23:43:03 437.250
AIST 1 05 May 23:35:17 23:39:04 31° 90° (E) 23:42:55
TISAT 1 05 May 23:35:20 23:37:00 12° 61° (ENE) 23:38:41 437.305
50 SAT 05 May 23:38:47 23:42:23 60° 259° (W) 23:46:00 437.505
O/OREOS (USA 219) 05 May 23:50:57 23:55:27 63° 65° (ENE) 23:59:54 437.305
CUBEBUG 1 06 May 00:01:41 00:05:54 45° 261° (W) 00:10:10 437.445
ESTCUBE 1 06 May 00:07:17 00:11:12 29° 264° (W) 00:15:09 437.505/2401.250
DUCHIFAT 1 06 May 00:17:33 00:21:47 69° 102° (ESE) 00:25:56 145.980
Cosmos 2499 06 May 00:18:20 00:24:36 36° 87° (E) 00:30:57 435.465 / 435.565
QB50P2 06 May 00:22:44 00:27:00 89° 272° (W) 00:31:13 145.880/145.840
RS-15 06 May 00:22:48 00:33:08 35° 335° (NNW) 00:43:56 29.354- 29.394
UKube-1 06 May 00:23:35 00:27:32 34° 263° (W) 00:31:31 .
DX 1 06 May 00:23:40 00:27:29 29° 264° (W) 00:31:19 434.975-435.025
POLYITAN 1 06 May 00:24:57 00:29:12 88° 284° (WNW) 00:33:24 437.675
POPSAT HIP 1 06 May 00:26:37 00:30:52 86° 289° (WNW) 00:35:05 437.405
UNISAT 6 06 May 00:27:05 00:30:08 19° 296° (WNW) 00:33:09 437.425
QB50P1 06 May 00:29:30 00:33:46 79° 285° (WNW) 00:37:57 145.935-145.965
DANDE 06 May 00:33:41 00:37:49 16° 63° (ENE) 00:42:20 436.750
GONETS M04 06 May 00:36:19 00:45:12 87° 95° (E) 00:54:05
JAS-2 06 May 00:38:51 00:45:16 27° 90° (E) 00:51:33 435.910
VELOX 1 06 May 00:39:27 00:42:39 19° 267° (W) 00:45:53 145.980
TIGRISAT 06 May 00:44:03 00:46:19 14° 299° (WNW) 00:48:35 435.000
PCSat 06 May 00:44:50 00:50:04 50° 246° (WSW) 00:55:16 145.827
BUGSAT 1 06 May 00:45:11 00:49:22 67° 101° (E) 00:53:28 437.445
SPROUT 06 May 00:46:59 00:51:00 38° 262° (W) 00:55:03 437.525
CUSAT 1 06 May 01:01:09 01:08:15 46° 73° (ENE) 01:15:55 437.405
NANOSAT C BR1 06 May 01:02:41 01:06:33 36° 290° (WNW) 01:10:24 145.865
ITUPSAT 1 06 May 01:05:27 01:09:06 22° 64° (ENE) 01:12:44 437.325
TISAT 1 06 May 01:07:50 01:12:04 73° 258° (WSW) 01:16:21 437.305
SWISSCUBE 06 May 01:12:30 01:16:33 28° 66° (ENE) 01:20:36 437.505
AIST 1 06 May 01:13:11 01:16:41 24° 288° (WNW) 01:20:16
O/OREOS (USA 219) 06 May 01:32:05 01:34:16 13° 262° (W) 01:36:27 437.305
BEESAT 06 May 01:44:36 01:49:12 52° 71° (ENE) 01:53:49 436.000
BEESAT 3 06 May 01:49:22 01:53:04 37° 49° (NE) 01:56:45 437.485
DUCHIFAT 1 06 May 01:55:09 01:56:54 12° 299° (WNW) 01:58:40 145.980
